Location: Wayah Bald
(35.1806°N, 83.5603°W)
Time: 01:10:19
(UTC-05:00)

Meteor 1-27 Rocket - Visible Passes

Search period start: 29 November 2014 00:00
Search period end: 09 December 2014 00:00
Orbit: 830 x 910 km, 81.3° (Epoch: 27 November)

Date Brightness Start Highest point End Pass type
(mag) Time Alt. Az. Time Alt. Az. Time Alt. Az.
29 Nov 6.5 18:31:12 10° W 18:33:05 12° WNW 18:34:58 10° NW visible
30 Nov 6.6 18:25:25 10° W 18:27:00 11° WNW 18:28:35 10° NW visible
01 Dec 6.6 18:19:43 10° W 18:20:55 11° WNW 18:22:07 10° NW visible
02 Dec 6.7 18:14:12 10° WNW 18:14:50 10° WNW 18:15:28 10° WNW visible
